Location: ?enovice
(49.7951°N, 15.1148°E)
Time: 10:12:27
(UTC+00:00)

Daily predictions for brighter satellites

Satellite Brightness Start Highest point End
(mag) Time Altitude Azimuth Time Altitude Azimuth Time Altitude Azimuth
Meteor 1-15 Rocket 4.3 17:47:22 10° S 17:53:05 85° ESE 17:58:45 10° NNE
STARLINK-1124 3.7 17:49:35 10° WNW 17:53:45 86° SSW 17:57:54 10° ESE
SeaSat 1 2.9 17:49:29 10° NNE 17:54:25 68° WNW 17:59:18 10° SW
ARGOS 3.6 17:49:24 10° SE 17:54:30 44° ENE 17:59:35 10° N
SL-8 R/B 3.8 17:49:45 10° WSW 17:54:31 70° S 17:59:16 10° E
STARLINK-1128 4.1 17:51:48 10° WNW 17:55:54 57° N 18:00:00 10° E
STARLINK-1066 3.3 17:53:12 10° WNW 17:56:20 59° SSW 17:59:26 10° SE
STARLINK-1081 3.3 17:53:40 10° WNW 17:56:46 58° SSW 17:59:50 10° SE
STARLINK-1070 3.3 17:54:08 10° WNW 17:57:12 57° SSW 18:00:17 10° SE
STARLINK-1209 3.2 17:54:38 10° SW 17:57:24 42° SSE 18:00:11 10° ENE
STARLINK-1069 3.3 17:54:32 10° WNW 17:57:38 57° SSW 18:00:44 10° SE
STARLINK-1110 3.6 17:53:36 10° WNW 17:57:38 83° SSW 18:01:41 10° ESE
STARLINK-1085 3.4 17:54:59 10° WNW 17:58:05 57° SSW 18:01:11 10° SE
STARLINK-1228 3.1 17:55:29 10° SW 17:58:14 42° SSE 18:00:59 10° ENE
STARLINK-1086 3.3 17:55:29 10° WNW 17:58:34 56° SSW 18:01:38 10° SE
STARLINK-1095 3.4 17:55:56 10° WNW 17:59:00 56° SSW 18:02:04 10° SE
CZ-4 R/B 3.3 17:55:49 10° SSW 17:59:21 33° W 18:02:53 10° NNW
STARLINK-1077 3.4 17:56:22 10° WNW 17:59:27 55° SSW 18:02:30 10° SE
STARLINK-1075 3.4 17:56:50 10° WNW 17:59:54 55° SSW 18:02:58 10° SE
STARLINK-1093 3.4 17:57:15 10° WNW 18:00:21 55° SSW 18:03:26 10° SE
STARLINK-1074 3.4 17:57:41 10° WNW 18:00:47 55° SSW 18:03:52 10° SE
STARLINK-1113 4.0 17:56:47 10° WNW 18:00:54 58° N 18:04:59 10° E
STARLINK-1087 3.4 17:58:11 10° WNW 18:01:15 54° SSW 18:04:18 10° SE
STARLINK-1088 3.4 17:58:38 10° WNW 18:01:42 53° SSW 18:04:45 10° SE
STARLINK-1115 3.5 17:59:03 10° WNW 18:02:09 53° SSW 18:05:14 10° SE
STARLINK-1076 3.5 17:59:30 10° WNW 18:02:35 53° SSW 18:05:40 10° SE
STARLINK-1092 3.5 17:59:58 10° WNW 18:03:03 53° SSW 18:06:07 10° SE
PKM 4.2 18:00:02 10° WSW 18:03:28 87° NNW 18:09:10 10° ENE
STARLINK-1080 3.5 18:00:27 10° WNW 18:03:30 52° SSW 18:06:33 10° SE
Cosmos 1271 Rocket 4.4 18:00:18 10° NNW 18:03:49 38° W 18:07:17 10° SSW
STARLINK-1090 3.5 18:00:53 10° WNW 18:03:56 51° SSW 18:06:59 10° SE
STARLINK-1089 3.5 18:01:21 10° WNW 18:04:24 51° SSW 18:07:26 10° SE
STARLINK-1107 3.5 18:01:48 10° WNW 18:04:51 51° SSW 18:07:53 10° SE
STARLINK-1119 4.0 18:01:46 10° WNW 18:05:53 59° N 18:09:59 10° E
Cosmos 1470 4.0 18:03:39 10° SE 18:06:36 21° E 18:09:34 10° NE
STARLINK-1122 3.7 18:02:45 10° WNW 18:06:48 75° SSW 18:10:49 10° ESE
NOSS 2-1 (C) 3.2 18:03:35 10° SW 18:06:59 74° NW 18:10:46 10° NE
STARLINK-1241 4.3 18:03:51 10° SSW 18:07:28 33° SE 18:11:04 10° ENE
ATLAS CENTAUR R/B 4.0 18:05:35 10° WNW 18:08:48 19° NNW 18:11:54 10° NNE
SL-08 RB Rocket 4.3 18:04:44 10° SE 18:08:55 38° ENE 18:13:09 10° N
STARLINK-1233 3.3 18:07:51 10° SW 18:10:50 43° SSE 18:13:52 10° ENE
STARLINK-1114 3.9 18:06:47 10° WNW 18:10:54 60° N 18:14:57 10° E
NOSS 2-1 (D) 3.4 18:07:49 10° SW 18:11:11 67° NW 18:14:59 10° NE
Cosmos 2369 Rocket 3.3 18:06:20 10° NNW 18:11:16 29° NE 18:16:01 10° ESE
STARLINK-1212 3.3 18:08:18 10° SW 18:11:18 44° SSE 18:14:18 10° ENE
STARLINK-1126 3.7 18:07:22 10° WNW 18:11:24 72° SSW 18:15:25 10° ESE
IRS-1A Rocket 4.3 18:05:46 10° SSE 18:11:24 77° ENE 18:17:12 10° NNW
COSMOS 2428 3.9 18:06:06 10° SW 18:11:37 47° NW 18:17:10 10° NNE
STARLINK-1105 3.3 18:08:44 10° SW 18:11:45 44° SSE 18:14:46 10° ENE
ISS -3.4 18:08:35 10° WNW 18:11:56 61° N 18:15:13 10° E
STARLINK-1239 4.2 18:08:21 10° SSW 18:12:01 35° SE 18:15:41 10° ENE
Cosmos 304 Rocket 3.8 18:07:22 10° NNW 18:12:12 89° ENE 18:16:59 10° SSE
STARLINK-1206 3.3 18:09:14 10° SW 18:12:13 44° SSE 18:15:13 10° ENE
SJ-6B 3.3 18:08:31 10° SE 18:12:24 45° ENE 18:16:22 10° N
STARLINK-1247 3.2 18:09:40 10° SW 18:12:39 45° SSE 18:15:40 10° ENE
STARLINK-1227 3.2 18:10:04 10° SW 18:13:05 45° SSE 18:16:07 10° ENE
CZ-2C R/B 3.0 18:08:31 10° SSE 18:13:30 62° ENE 18:18:17 10° N
STARLINK-1218 3.2 18:10:34 10° SW 18:13:33 45° SSE 18:16:34 10° ENE
STARLINK-1226 3.2 18:11:01 10° SW 18:14:01 46° SSE 18:17:02 10° ENE
Cosmos 1758 4.5 18:10:45 10° SE 18:14:04 24° E 18:17:25 10° NE
STARLINK-1254 3.2 18:11:24 10° SW 18:14:25 46° SSE 18:17:28 10° ENE
STARLINK-1215 3.2 18:11:54 10° SW 18:14:55 46° SSE 18:17:56 10° ENE
STARLINK-1231 3.2 18:12:20 10° SW 18:15:20 47° SSE 18:18:22 10° ENE
STARLINK-1130 (DARKSAT) 3.9 18:11:45 10° WNW 18:15:52 62° NNE 18:19:43 12° E
STARLINK-1082 3.8 18:11:56 10° WNW 18:15:57 68° SSW 18:19:48 11° SE
Cosmos 1048 Rocket 4.1 18:11:03 10° SSW 18:16:12 83° WNW 18:21:26 10° NNE
STARLINK-1232 3.2 18:13:14 10° SW 18:16:15 47° SSE 18:19:17 10° ENE
STARLINK-1240 4.1 18:12:52 10° SSW 18:16:34 37° SE 18:20:18 10° ENE
STARLINK-1217 3.2 18:13:41 10° SW 18:16:42 48° SSE 18:19:44 10° ENE
STARLINK-1208 3.2 18:14:06 10° SW 18:17:08 48° SSE 18:20:12 10° ENE
Meteor 2-8 Rocket 4.5 18:11:18 10° S 18:17:22 64° E 18:23:26 10° NNE
STARLINK-1229 3.1 18:14:35 10° SW 18:17:36 48° SSE 18:20:38 10° ENE
STARLINK-1271 3.1 18:15:03 10° SW 18:18:04 49° SSE 18:21:05 10° ENE
Meteor 1-22 Rocket 4.1 18:12:56 10° S 18:18:09 63° E 18:23:23 10° NNE
STARLINK-1270 3.1 18:15:29 10° SW 18:18:31 49° SSE 18:21:32 10° ENE
Resurs 01 Rocket 2.9 18:15:31 11° ESE 18:18:53 24° ENE 18:22:24 10° N
STARLINK-1154 3.1 18:15:55 10° SW 18:18:57 50° SSE 18:21:57 10° ENE
STARLINK-1197 3.1 18:16:49 10° SW 18:19:51 50° SSE 18:22:49 11° ENE
STARLINK-1189 3.1 18:17:16 10° SW 18:20:18 51° SSE 18:23:15 11° ENE
STARLINK-1100 3.8 18:16:30 10° WNW 18:20:30 64° SSW 18:24:11 12° SE
STARLINK-1084 3.9 18:16:44 10° WNW 18:20:51 64° NNE 18:24:30 13° E
STARLINK-1187 3.0 18:18:04 10° SW 18:21:08 57° SSE 18:24:10 10° ENE
STARLINK-1216 4.1 18:17:25 10° SW 18:21:11 40° SE 18:24:57 10° ENE
STARLINK-1188 3.1 18:18:09 10° SW 18:21:12 51° SSE 18:24:07 11° ENE
STARLINK-1198 3.1 18:18:24 10° SW 18:21:27 52° SSE 18:24:21 11° ENE
STARLINK-1235 2.9 18:18:43 10° SW 18:21:50 64° SSE 18:24:55 10° ENE
USA 81 4.2 18:16:43 10° N 18:22:01 82° W 18:27:17 10° S
Cosmos 494 Rocket 3.9 18:17:25 10° SSW 18:22:31 70° ESE 18:27:42 10° NNE
STARLINK-1199 3.0 18:20:05 10° SW 18:23:08 53° SSE 18:26:02 11° ENE
Cosmos 1733 3.1 18:19:35 10° S 18:23:20 73° E 18:27:07 10° NNE
STARLINK-1191 3.0 18:20:33 10° SW 18:23:36 54° SSE 18:26:29 11° ENE
CZ-4C R/B 4.0 18:18:52 10° W 18:23:51 32° NNW 18:29:43 10° NE
STARLINK-1210 3.0 18:20:58 10° SW 18:24:02 54° SSE 18:26:54 12° ENE
STARLINK-1221 3.0 18:21:26 10° SW 18:24:31 55° SSE 18:27:22 12° ENE
Cosmos 1709 Rocket 4.0 18:18:43 10° N 18:24:56 68° ENE 18:31:04 10° SSE
STARLINK-1219 3.0 18:21:53 10° SW 18:24:57 55° SSE 18:27:47 12° ENE
STARLINK-1083 3.9 18:21:06 10° WNW 18:25:06 61° SSW 18:28:36 13° SE
STARLINK-67 2.3 18:22:44 10° WSW 18:25:19 89° SE 18:27:36 13° ENE
STARLINK-1222 3.0 18:22:19 10° SW 18:25:24 55° SSE 18:28:12 12° ENE
FREGAT/IRIS 2.2 18:22:43 10° SSE 18:25:26 84° ENE 18:28:10 10° NNW
STARLINK-1237 4.0 18:22:00 10° SW 18:25:48 42° SE 18:29:32 10° ENE
STARLINK-1098 3.8 18:21:42 10° WNW 18:25:51 66° NNE 18:29:16 14° E
STARLINK-1211 3.0 18:22:47 10° SW 18:25:51 56° SSE 18:28:38 12° ENE
SPOT 3 Rocket 3.8 18:21:16 10° SE 18:26:16 50° ENE 18:31:19 10° N
STARLINK-1214 3.0 18:23:13 10° SW 18:26:19 56° SSE 18:29:05 12° ENE
Cosmos 1331 Rocket 4.2 18:21:22 10° NNW 18:26:33 73° WSW 18:31:40 10° SSE
STARLINK-1245 3.0 18:23:43 10° SW 18:26:47 57° SSE 18:29:30 13° ENE
STARLINK-1238 3.0 18:24:08 10° SW 18:27:12 57° SSE 18:29:57 13° ENE
Cosmos 1674 4.1 18:23:58 10° NNW 18:27:32 41° W 18:31:03 10° SSW
STARLINK-1205 2.9 18:25:04 10° SW 18:28:08 58° SSE 18:30:49 13° ENE
STARLINK-1204 2.9 18:25:30 10° SW 18:28:34 58° SSE 18:31:12 13° ENE
SL-14 R/B 3.3 18:25:23 10° N 18:29:27 76° E 18:33:29 10° SSE
STARLINK-1125 4.0 18:25:43 10° WNW 18:29:42 57° SSW 18:33:02 14° SE
Cosmos 2219 Rocket 4.0 18:24:47 10° WSW 18:29:56 35° NW 18:35:06 10° NNE
STARLINK-1202 3.9 18:26:33 10° SW 18:30:24 45° SE 18:33:59 12° ENE
STARLINK-1123 3.8 18:26:43 10° WNW 18:30:51 68° NNE 18:34:05 16° E
Cosmos 1726 4.0 18:32:04 14° E 18:32:04 14° E 18:34:02 10° NE
MOS 1 Rocket 4.4 18:28:49 10° NNE 18:33:18 28° E 18:37:53 10° SSE
STARLINK-1109 4.0 18:30:01 10° WNW 18:33:58 54° SSW 18:37:10 15° SE
STARLINK-1246 3.8 18:31:27 10° SW 18:35:22 49° SSE 18:38:50 13° ENE
STARLINK-1097 3.7 18:31:41 10° WNW 18:35:49 70° NNE 18:38:50 18° E
Cosmos 1943 Rocket 2.5 18:31:49 10° NNW 18:37:10 47° NE 18:41:18 17° ESE
Cosmos 292 Rocket 4.5 18:33:04 10° N 18:37:30 36° ENE 18:40:35 18° ESE
MONITOR-E 4.1 18:34:56 10° S 18:37:34 67° W 18:40:13 10° NNW
STARLINK-1091 4.1 18:34:41 10° WNW 18:38:38 51° SSW 18:41:39 16° SE
Cosmos 1766 4.1 18:35:11 10° SSW 18:39:06 54° WNW 18:43:02 10° N
Cosmos 1980 4.3 18:33:36 10° SW 18:39:14 62° WNW 18:44:54 10° NNE
STARLINK-1099 3.7 18:36:40 10° WNW 18:40:49 73° NNE 18:43:38 20° E
S3M 4.4 18:34:41 10° SSW 18:41:02 70° WNW 18:47:28 10° N
Ariane Rocket 3.6 18:37:12 10° S 18:42:12 58° WSW 18:47:14 10° NNW
STARLINK-1224 3.6 18:40:22 10° SW 18:44:17 55° SSE 18:47:24 16° ENE
STARLINK-1104 3.7 18:41:40 10° WNW 18:45:49 75° NNE 18:48:25 22° ESE
Cosmos 1455 Rocket 3.3 18:41:43 10° SSW 18:46:02 71° WNW 18:50:25 10° N
TSX-5 4.3 18:42:23 10° NNW 18:48:06 86° ENE 18:51:27 17° SSE
STARLINK-1225 3.6 18:45:02 10° SW 18:48:59 58° SSE 18:51:55 17° ENE
STARLINK-1144 3.6 18:46:37 10° WNW 18:50:47 78° NNE 18:53:11 24° ESE
STARLINK-1203 3.5 18:47:01 10° SW 18:50:54 63° SSE 18:53:42 18° ENE
STARLINK-1072 4.4 18:47:56 10° WNW 18:51:44 41° SW 18:54:14 19° SSE
Cosmos 1626 Rocket 3.5 18:47:58 10° N 18:52:24 87° ENE 18:56:47 10° S
SL-16 R/B 2.1 18:46:58 10° SSW 18:52:35 69° ESE 18:58:14 10° NNE
STARLINK-1230 3.5 18:49:37 10° SW 18:53:37 62° SSE 18:56:22 19° ENE
Cosmos 2333 Rocket 4.5 18:48:55 10° W 18:53:38 26° NW 18:58:20 10° NNE
USA 186 3.1 18:51:24 10° S 18:54:42 43° W 18:57:58 10° NNW
Cosmos 1626 2.8 18:51:39 10° NNW 18:55:18 56° W 18:58:56 10° S
Spot 2 Rocket 4.4 18:52:55 21° ESE 18:55:21 31° ENE 18:59:50 10° N
STARLINK-1103 3.6 18:51:36 10° WNW 18:55:46 82° NNE 18:57:58 27° ESE
Cosmos 1953 2.9 18:53:53 21° SE 18:55:57 35° E 18:59:35 10° NNE
Cosmos 2084 Rocket 3.7 18:51:57 10° NW 18:56:24 60° NE 18:58:46 26° ESE
Cosmos 1437 4.0 18:54:02 10° NNE 18:56:20 22° ENE 18:56:20 22° ENE
STARLINK-1234 2.8 18:53:52 10° WSW 18:56:52 77° NNW 18:58:24 26° ENE
STARLINK-1243 3.5 18:54:18 10° SW 18:58:18 66° SSE 19:00:53 21° ENE
Cosmos 1602 Rocket 3.5 18:55:28 10° N 18:59:59 82° E 19:03:54 13° SSE
STARLINK-1101 3.6 18:56:36 10° WNW 19:00:46 85° NNE 19:02:46 30° ESE
Aureole 3 3.7 18:57:25 12° SSE 19:01:03 52° E 19:06:02 10° NNE
STARLINK-1236 3.4 18:58:56 10° SW 19:02:57 70° SSE 19:05:22 23° ENE
DMSP B5D2-2 4.1 19:00:01 10° NNE 19:05:09 56° E 19:10:16 10° S
ATLAS 2AS CENTAUR R/B 3.7 18:58:02 10° NW 19:05:25 42° NNE 19:10:15 19° E
STARLINK-1102 3.5 19:01:34 10° WNW 19:05:44 89° NNE 19:07:32 33° ESE
H-2A R/B 3.2 19:01:32 10° S 19:06:37 45° W 19:11:36 10° NNW
Aureole 2 Rocket 2.7 19:06:22 10° NNW 19:09:49 49° ENE 19:10:31 41° ESE
STARLINK-1111 3.5 19:06:33 10° WNW 19:10:42 88° SSW 19:12:19 36° ESE
Terra 3.7 19:10:44 14° ENE 19:11:29 15° NE 19:14:06 10° NNE
STARLINK-1269 3.4 19:08:19 10° WSW 19:12:22 78° SSE 19:14:26 28° ENE
Cosmos 1544 Rocket 4.5 19:09:15 10° SSW 19:13:32 50° WNW 19:17:52 10° N
USA 234 3.2 19:07:01 10° ENE 19:13:33 68° SE 19:20:03 10° SW
ERBS 3.9 19:11:19 10° W 19:14:23 32° NNW 19:16:57 13° NE
Cosmos 1603 4.3 19:12:01 23° SSE 19:14:27 32° ESE 19:19:24 10° NE
CZ-2C R/B 3.8 19:09:58 10° NNE 19:14:46 89° WNW 19:19:29 10° SSW
Meteor 1-16 Rocket 4.5 19:12:24 25° SE 19:14:58 41° E 19:20:03 10° NNE
STARLINK-1073 3.5 19:11:32 10° WNW 19:15:41 84° SSW 19:17:06 40° ESE
STARLINK-1200 3.4 19:13:00 10° WSW 19:17:03 82° SSE 19:18:56 31° ENE
Cosmos 1703 3.9 19:13:53 10° N 19:17:32 35° ENE 19:17:46 35° E
Cosmos 1825 Rocket 3.7 19:15:01 10° N 19:19:22 53° ENE 19:20:41 38° SE
STARLINK-1121 3.5 19:16:31 10° WNW 19:20:41 80° SSW 19:21:53 45° SE
STARLINK-1192 3.4 19:17:38 10° WSW 19:21:42 86° SSE 19:23:24 34° ENE
MetOp-B 4.2 19:19:53 30° SE 19:22:21 58° ENE 19:27:38 10° N
Cosmos 2237 Rocket 3.9 19:18:06 10° WSW 19:23:13 35° NW 19:28:23 10° NNE
COSMOS 2455 4.3 19:20:02 10° NNW 19:25:01 26° NNE 19:28:01 18° ENE
STARLINK-1106 3.6 19:21:29 10° WNW 19:25:38 76° SSW 19:26:39 49° SE
STARLINK-1244 3.4 19:22:25 10° WSW 19:26:29 89° SSE 19:28:01 37° ENE
CZ-2C R/B 2.4 19:21:37 10° NNE 19:26:50 71° ESE 19:31:59 10° S
STARLINK-1201 3.2 19:23:35 10° W 19:26:51 67° NNW 19:27:31 50° NE
Cosmos 2184 Rocket 3.9 19:21:45 10° N 19:28:09 78° E 19:32:14 23° SSE
Cosmos 1992 Rocket 3.9 19:22:57 10° NNW 19:28:12 85° ENE 19:30:33 34° SSE
Cosmos 1758 Rocket 3.4 19:24:16 10° N 19:28:40 77° ENE 19:30:09 41° SSE
STARLINK-1112 3.6 19:26:29 10° WNW 19:30:37 71° SSW 19:31:27 53° SE
STARLINK-1138 3.5 19:27:07 10° WSW 19:31:11 87° NNW 19:32:32 41° ENE
STARLINK-1209 3.3 19:29:22 10° W 19:32:12 51° NNW 19:32:13 51° NNW
STARLINK-1228 3.4 19:30:21 10° W 19:33:08 51° NNW 19:33:08 51° NNW
Cosmos 1953 Rocket 3.7 19:30:37 10° N 19:34:58 53° ENE 19:35:31 49° ESE
STARLINK-1128 3.6 19:31:29 10° WNW 19:35:37 67° SSW 19:36:15 56° SSE
STARLINK-1143 3.5 19:31:54 10° WSW 19:35:58 84° NNW 19:37:08 46° ENE
Cosmos 2251 Rocket 3.5 19:31:30 10° S 19:36:47 64° ESE 19:42:08 10° NNE
SL-8 R/B 3.6 19:32:11 10° W 19:36:57 71° S 19:38:02 51° SE
Cosmos 1656 Rocket 4.0 19:34:04 10° NNW 19:39:39 53° NE 19:41:14 41° ESE
STARLINK-1113 3.6 19:36:28 10° WNW 19:40:34 63° SSW 19:41:02 58° S
Cosmos 1470 4.3 19:38:52 10° SW 19:42:26 35° WNW 19:46:04 10° N
Cosmos 1606 Rocket 3.5 19:43:16 59° ESE 19:43:28 60° E 19:47:51 10° NNE
STARLINK-1119 3.7 19:41:26 10° WNW 19:45:32 60° SSW 19:45:48 58° S
STARLINK-1241 3.6 19:42:23 10° WSW 19:46:24 76° NNW 19:47:06 58° NE
STARLINK-1233 3.7 19:43:33 10° W 19:46:21 51° NW 19:46:21 51° NW
STARLINK-1212 3.7 19:44:01 10° W 19:46:46 50° NW 19:46:46 50° NW
STARLINK-1105 3.7 19:44:28 10° W 19:47:13 50° NW 19:47:13 50° NW
STARLINK-1206 3.8 19:44:57 10° W 19:47:38 49° NW 19:47:38 49° NW
STARLINK-1247 3.8 19:45:24 10° W 19:48:03 48° NW 19:48:03 48° NW
ISS -3.1 19:45:27 10° WNW 19:48:11 51° WSW 19:48:11 51° WSW
STARLINK-1227 3.8 19:45:48 10° W 19:48:30 49° NW 19:48:30 49° NW
Cosmos 2154 Rocket 4.0 19:42:39 10° N 19:49:03 74° E 19:51:33 39° SSE
ERS-1 Rocket 3.3 19:48:48 43° E 19:49:16 44° ENE 19:54:04 10° N
ATLAS CENTAUR R/B 4.3 19:48:31 10° NNW 19:49:18 10° N 19:50:03 10° N
STARLINK-1218 3.8 19:46:18 10° W 19:48:55 47° NW 19:48:55 47° NW
STARLINK-1226 3.9 19:46:46 10° W 19:49:23 47° NW 19:49:23 47° NW
STARLINK-1254 3.8 19:47:10 10° W 19:49:48 47° NW 19:49:48 47° NW
STARLINK-1114 3.8 19:46:27 10° WNW 19:50:31 56° SSW 19:50:36 56° SSW
STARLINK-1215 3.9 19:47:40 10° W 19:50:14 46° NW 19:50:14 46° NW
STARLINK-1239 3.6 19:46:59 10° WSW 19:51:00 74° NNW 19:51:30 63° NE
STARLINK-1231 3.9 19:48:06 10° W 19:50:39 45° NW 19:50:39 45° NW
USA 245 4.0 19:50:07 51° SSE 19:51:24 78° ENE 19:57:15 10° NNW
STARLINK-1232 4.0 19:49:01 10° W 19:51:32 44° NW 19:51:32 44° NW
STARLINK-1217 4.0 19:49:28 10° W 19:51:58 44° NW 19:51:58 44° NW
STARLINK-1208 4.0 19:49:53 10° W 19:52:25 44° NW 19:52:25 44° NW
STARLINK-1229 4.1 19:50:22 10° W 19:52:49 43° NW 19:52:49 43° NW
BREEZE-M DEB (TANK) 3.6 19:48:16 10° WNW 19:53:10 56° SW 19:53:10 56° SW
STARLINK-1271 4.1 19:50:50 10° W 19:53:16 42° NW 19:53:16 42° NW
STARLINK-1270 4.1 19:51:17 10° W 19:53:42 42° NW 19:53:42 42° NW
BREEZE M DEB (TANK) 4.5 19:47:21 10° SW 19:53:49 32° S 19:53:49 32° S
STARLINK-1154 4.1 19:51:44 10° W 19:54:07 41° NW 19:54:07 41° NW
Resurs 01 Rocket 2.5 19:53:05 27° SSW 19:55:07 46° W 19:59:24 10° NNW
STARLINK-1130 (DARKSAT) 4.0 19:51:25 10° WNW 19:55:22 52° SW 19:55:22 52° SW
STARLINK-1240 3.6 19:51:36 10° WSW 19:55:37 71° NNW 19:55:56 67° NNE
SPOT 5 3.4 19:56:05 37° NE 19:56:05 37° NE 19:59:44 10° N
STARLINK-1197 4.2 19:52:38 10° W 19:54:59 40° NW 19:54:59 40° NW
Cosmos 2369 Rocket 2.4 19:50:06 10° NNW 19:55:47 67° WSW 19:57:50 39° S
STARLINK-1189 4.2 19:53:05 10° W 19:55:26 40° WNW 19:55:26 40° WNW
STARLINK-1187 4.2 19:53:58 10° W 19:56:20 40° NW 19:56:20 40° NW
STARLINK-1188 4.3 19:54:00 10° W 19:56:17 39° WNW 19:56:17 39° WNW
STARLINK-1198 4.3 19:54:14 10° W 19:56:31 39° WNW 19:56:31 39° WNW
STARLINK-1235 4.3 19:54:41 10° W 19:57:05 39° NW 19:57:05 39° NW
STARLINK-1199 4.3 19:55:56 10° W 19:58:13 38° WNW 19:58:13 38° WNW
STARLINK-1191 4.4 19:56:24 10° W 19:58:39 37° WNW 19:58:39 37° WNW
Cosmos 2263 4.1 19:53:53 10° NNW 19:59:32 82° WSW 20:01:00 51° SSE
STARLINK-1210 4.4 19:56:50 10° W 19:59:04 37° WNW 19:59:04 37° WNW
STARLINK-1216 3.7 19:56:14 10° W 20:00:15 69° NNW 20:00:23 68° N
STARLINK-1221 4.4 19:57:18 10° W 19:59:32 37° WNW 19:59:32 37° WNW
STARLINK-1084 4.2 19:56:24 10° WNW 20:00:09 48° SW 20:00:09 48° SW
STARLINK-1219 4.4 19:57:46 10° W 19:59:58 36° WNW 19:59:58 36° WNW
STARLINK-1222 4.5 19:58:12 10° W 20:00:23 36° WNW 20:00:23 36° WNW
Cosmos 1908 4.3 20:02:47 36° NNE 20:02:47 36° NNE 20:05:11 10° NNE
Cosmos 967 Rocket 4.5 19:55:23 10° SSW 20:01:41 59° ESE 20:08:04 10° NE
STARLINK-1211 4.5 19:58:39 10° W 20:00:49 35° WNW 20:00:49 35° WNW
STARLINK-1237 3.8 20:00:55 10° W 20:04:52 66° NNW 20:04:52 66° NNW
Cosmos 962 Rocket 4.5 19:58:59 10° N 20:05:10 62° ENE 20:06:15 54° ESE
STARLINK-1098 4.4 20:01:23 10° WNW 20:04:55 44° SW 20:04:55 44° SW
Cosmos 1726 2.8 20:06:29 50° W 20:06:48 52° WNW 20:10:29 10° N
Landsat 7 3.6 20:06:34 76° SSE 20:06:56 86° ENE 20:11:43 10° NNW
STARLINK-1202 3.9 20:05:33 10° W 20:09:18 63° NW 20:09:18 63° NW
Nadezhda 1 Rocket 3.9 20:06:17 31° S 20:09:37 88° E 20:16:03 10° N
Cosmos 921 Rocket 4.2 20:06:25 10° N 20:09:20 31° NNE 20:09:20 31° NNE
Cosmos 2228 3.0 20:11:03 78° WNW 20:11:03 78° WNW 20:15:17 10° N
SL-8 Rocket 4.3 20:05:18 10° N 20:11:23 49° ENE 20:11:56 47° E
MOS 1 Rocket 4.4 20:06:44 10° N 20:11:42 49° WNW 20:16:51 10° SW
SAR-Lupe-2 4.4 20:09:16 10° N 20:12:21 48° NW 20:12:21 48° NW
CZ-4C R/B 4.4 20:09:19 10° NW 20:14:22 25° N 20:20:09 10° ENE
STARLINK-1246 4.1 20:10:40 10° W 20:14:18 58° NW 20:14:18 58° NW
Cosmos 2366 rocket 4.4 20:12:39 10° N 20:18:31 44° ENE 20:18:37 44° ENE
Cosmos 1943 3.0 20:19:28 70° SSE 20:20:02 77° ESE 20:25:44 10° NNE
Cosmos 1943 Rocket 3.4 20:15:51 10° NW 20:20:46 34° WSW 20:22:51 25° SW
Cosmos 2058 Rocket 3.8 20:24:10 48° NNE 20:24:10 48° NNE 20:27:30 10° NNE
STARLINK-1224 4.4 20:19:33 10° W 20:22:45 48° WNW 20:22:45 48° WNW
NOSS 3-4 (A) 3.8 20:17:22 10° NW 20:24:14 75° NE 20:25:57 55° ESE
NOSS 3-4 (C) 3.8 20:17:28 10° NW 20:24:20 74° NE 20:26:03 55° ESE
SPOT 1/Viking Rocket 3.6 20:32:06 65° SW 20:32:28 68° WSW 20:37:41 10° NNW
Spot 2 Rocket 4.4 20:33:06 38° SW 20:34:11 43° W 20:39:05 10° NNW
NOSS 3-3 (A) 3.8 20:28:41 10° SW 20:34:37 90° NW 20:41:25 10° NE
NOSS 3-3 (C) 3.8 20:28:47 10° SW 20:34:43 90° SE 20:41:31 10° NE
SL-16 R/B 4.2 20:32:25 10° WSW 20:37:13 27° NW 20:42:03 10° NNE
Terra 2.4 20:49:36 55° N 20:49:36 55° N 20:53:20 10° NNW
Cosmos 2341 Rocket 4.1 20:46:46 10° NNW 20:53:05 70° W 20:53:51 63° SW
USA 234 3.7 20:50:07 10° ENE 20:56:32 60° NNW 21:02:56 10° W
ATLAS 2AS CENTAUR R/B 2.7 20:49:23 10° NW 20:57:03 76° SW 20:57:41 71° S
Cosmos 1603 4.4 20:53:25 13° SW 20:58:23 50° NW 21:03:52 10° NNE
Cosmos 1980 Rocket 4.3 21:04:24 10° N 21:07:58 17° NNE 21:09:09 16° NE
Aureole 1 Rocket 4.3 21:07:14 51° SW 21:09:22 79° WNW 21:15:54 10° NNE
COSMOS 2455 3.0 21:05:46 10° NW 21:11:09 70° NNW 21:11:09 70° NNW
Cosmos 2218 Rocket 4.2 21:15:40 10° NNW 21:21:25 66° WNW 21:21:25 66° WNW
ATLAS CENTAUR R/B 4.1 21:27:40 10° NNW 21:29:15 14° N 21:29:15 14° N
Cosmos 2181 Rocket 4.3 21:33:10 59° WNW 21:33:10 59° WNW 21:39:17 10° N
CZ-4C R/B 3.8 21:58:27 10° NW 22:04:44 40° NNE 22:06:33 35° ENE
Mayak 1.4 22:05:41 10° N 22:06:55 18° N 22:06:55 18° N
Cosmos 1697 Rocket 3.9 22:22:33 10° NNW 22:26:03 38° NNW 22:26:03 38° NNW
SL-16 R/B 4.2 22:24:39 10° N 22:28:47 20° NE 22:29:37 19° NE
USA 234 4.0 22:32:50 10° ENE 22:39:02 48° N 22:45:15 10° WNW
Cosmos 2322 Rocket 4.2 22:39:37 10° N 22:43:52 21° NE 22:44:37 21° NE
Cosmos 1980 Rocket 3.6 22:47:37 10° NNW 22:50:55 35° N 22:50:55 35° N
Cosmos 2082 Rocket 3.9 23:15:19 27° NE 23:15:19 27° NE 23:17:52 10° NE
SL-16 R/B 3.8 23:21:37 33° ENE 23:21:51 33° ENE 23:27:18 10° N
ATLAS 5 CENTAUR R/B 3.9 23:39:11 24° N 23:39:11 24° N 23:42:10 10° NNE
Cosmos 1833 Rocket 3.9 23:45:09 38° N 23:45:09 38° N 23:48:42 10° NNE
